Location: Northam
(31.6525°S, 116.6655°E)
Time: 15:09:17
(UTC+08:00)

Envisat - Pass Details

Date: 18 May 2021
Orbit: 764 x 766 km, 98.1° (Epoch: 18 June)

Event Time Altitude Azimuth Distance (km) Brightness Sun altitude
Rises 04:33:06 0° 27° (NNE) 3,217 6.6 -30.3°
Reaches altitude 10° 04:35:26 10° 32° (NNE) 2,299 5.9 -29.8°
Maximum altitude 04:40:19 50° 106° (ESE) 973 3.7 -28.7°
Enters shadow 04:43:07 25° 170° (S) 1,545 4.5 -28.1°
